owner,sensor,date,latitude,longitude,vertical_datum,wind_speed,wind_to_direction,wind_speed_of_gust,qcFlag 
WAVCIS,ioos:station:WAVCIS:CSI06:1,2017-03-01T00:00:00Z,28.8667,-90.4833,10.0,8.91,161.0,,'11111222,11111222,99999999' 
WAVCIS,ioos:station:WAVCIS:CSI06:1,2017-03-01T01:00:00Z,28.8667,-90.4833,10.0,9.02,160.0,,'11111222,11111222,99999999' 
WAVCIS,ioos:station:WAVCIS:CSI06:1,2017-03-01T02:00:00Z,28.8667,-90.4833,10.0,9.18,159.0,,'11111222,11111222,99999999' 
WAVCIS,ioos:station:WAVCIS:CSI06:1,2017-03-01T03:00:00Z,28.8667,-90.4833,10.0,8.33,165.0,,'11111222,11111222,99999999' 
WAVCIS,ioos:station:WAVCIS:CSI06:1,2017-03-01T04:00:00Z,28.8667,-90.4833,10.0,7.75,165.0,,'11111222,11111222,99999999' 
WAVCIS,ioos:station:WAVCIS:CSI06:1,2017-03-01T05:00:00Z,28.8667,-90.4833,10.0,8.31,164.0,,'11111222,11111222,99999999' 
WAVCIS,ioos:station:WAVCIS:CSI06:1,2017-03-01T06:00:00Z,28.8667,-90.4833,10.0,7.71,160.0,,'11111222,11111222,99999999' 
WAVCIS,ioos:station:WAVCIS:CSI06:1,2017-03-01T07:00:00Z,28.8667,-90.4833,10.0,8.24,163.0,,'11111222,11111222,99999999' 
WAVCIS,ioos:station:WAVCIS:CSI06:1,2017-03-01T08:00:00Z,28.8667,-90.4833,10.0,8.76,162.0,,'11111222,11111222,99999999' 
WAVCIS,ioos:station:WAVCIS:CSI06:1,2017-03-01T09:00:00Z,28.8667,-90.4833,10.0,9.91,164.0,,'11111222,11111222,99999999' 
WAVCIS,ioos:station:WAVCIS:CSI06:1,2017-03-01T10:00:00Z,28.8667,-90.4833,10.0,10.14,166.0,,'11111222,11111222,99999999' 
WAVCIS,ioos:station:WAVCIS:CSI06:1,2017-03-01T11:00:00Z,28.8667,-90.4833,10.0,10.57,168.0,,'11111222,11111222,99999999' 
WAVCIS,ioos:station:WAVCIS:CSI06:1,2017-03-01T12:00:00Z,28.8667,-90.4833,10.0,9.38,179.0,,'11111222,11111222,99999999' 
WAVCIS,ioos:station:WAVCIS:CSI06:1,2017-03-01T13:00:00Z,28.8667,-90.4833,10.0,10.46,175.0,,'11111222,11111222,99999999' 
WAVCIS,ioos:station:WAVCIS:CSI06:1,2017-03-01T14:00:00Z,28.8667,-90.4833,10.0,9.67,186.0,,'11111222,11111222,99999999' 
WAVCIS,ioos:station:WAVCIS:CSI06:1,2017-03-01T15:00:00Z,28.8667,-90.4833,10.0,7.41,189.0,,'11111222,11111222,99999999' 
WAVCIS,ioos:station:WAVCIS:CSI06:1,2017-03-01T16:00:00Z,28.8667,-90.4833,10.0,5.543,209.0,,'11111222,11111222,99999999' 
WAVCIS,ioos:station:WAVCIS:CSI06:1,2017-03-01T17:00:00Z,28.8667,-90.4833,10.0,4.396,213.0,,'11111222,11111222,99999999' 
WAVCIS,ioos:station:WAVCIS:CSI06:1,2017-03-01T18:00:00Z,28.8667,-90.4833,10.0,4.279,211.0,,'11111222,11111222,99999999' 
WAVCIS,ioos:station:WAVCIS:CSI06:1,2017-03-01T19:00:00Z,28.8667,-90.4833,10.0,4.009,284.0,,'11111222,11111222,99999999' 
WAVCIS,ioos:station:WAVCIS:CSI06:1,2017-03-01T20:00:00Z,28.8667,-90.4833,10.0,3.256,245.0,,'11111222,11111222,99999999' 
WAVCIS,ioos:station:WAVCIS:CSI06:1,2017-03-01T21:00:00Z,28.8667,-90.4833,10.0,3.099,219.0,,'11111222,11111222,99999999' 
WAVCIS,ioos:station:WAVCIS:CSI06:1,2017-03-01T22:00:00Z,28.8667,-90.4833,10.0,3.262,216.0,,'11111222,11111222,99999999' 
WAVCIS,ioos:station:WAVCIS:CSI06:1,2017-03-01T23:00:00Z,28.8667,-90.4833,10.0,3.88,205.0,,'11111222,11111222,99999999' 
WAVCIS,ioos:station:WAVCIS:CSI06:1,2017-03-02T00:00:00Z,28.8667,-90.4833,10.0,5.119,211.0,,'11111222,11111222,99999999' 
WAVCIS,ioos:station:WAVCIS:CSI06:1,2017-03-02T01:00:00Z,28.8667,-90.4833,10.0,5.176,211.0,,'11111222,11111222,99999999' 
WAVCIS,ioos:station:WAVCIS:CSI06:1,2017-03-02T02:00:00Z,28.8667,-90.4833,10.0,5.658,213.0,,'11111222,11111222,99999999' 
WAVCIS,ioos:station:WAVCIS:CSI06:1,2017-03-02T03:00:00Z,28.8667,-90.4833,10.0,4.783,244.0,,'11111222,11111222,99999999' 
WAVCIS,ioos:station:WAVCIS:CSI06:1,2017-03-02T04:00:00Z,28.8667,-90.4833,10.0,4.628,259.0,,'11111222,11111222,99999999' 
WAVCIS,ioos:station:WAVCIS:CSI06:1,2017-03-02T05:00:00Z,28.8667,-90.4833,10.0,5.014,282.0,,'11111222,11111222,99999999' 
WAVCIS,ioos:station:WAVCIS:CSI06:1,2017-03-02T06:00:00Z,28.8667,-90.4833,10.0,13.99,31.0,,'11111222,11111222,99999999' 
WAVCIS,ioos:station:WAVCIS:CSI06:1,2017-03-02T07:00:00Z,28.8667,-90.4833,10.0,12.06,43.0,,'11111222,11111222,99999999' 
WAVCIS,ioos:station:WAVCIS:CSI06:1,2017-03-02T08:00:00Z,28.8667,-90.4833,10.0,12.53,40.0,,'11111222,11111222,99999999' 
WAVCIS,ioos:station:WAVCIS:CSI06:1,2017-03-02T09:00:00Z,28.8667,-90.4833,10.0,13.86,24.0,,'11111222,11111222,99999999' 
WAVCIS,ioos:station:WAVCIS:CSI06:1,2017-03-02T10:00:00Z,28.8667,-90.4833,10.0,12.73,21.0,,'11111222,11111222,99999999' 
WAVCIS,ioos:station:WAVCIS:CSI06:1,2017-03-02T11:00:00Z,28.8667,-90.4833,10.0,13.9,22.0,,'11111222,11111222,99999999' 
WAVCIS,ioos:station:WAVCIS:CSI06:1,2017-03-02T12:00:00Z,28.8667,-90.4833,10.0,14.91,32.0,,'11111222,11111222,99999999' 
WAVCIS,ioos:station:WAVCIS:CSI06:1,2017-03-02T13:00:00Z,28.8667,-90.4833,10.0,16.33,35.0,,'11111222,11111222,99999999' 
WAVCIS,ioos:station:WAVCIS:CSI06:1,2017-03-02T14:00:00Z,28.8667,-90.4833,10.0,15.04,36.0,,'11111222,11111222,99999999' 
WAVCIS,ioos:station:WAVCIS:CSI06:1,2017-03-02T15:00:00Z,28.8667,-90.4833,10.0,15.5,37.0,,'11111222,11111222,99999999' 
WAVCIS,ioos:station:WAVCIS:CSI06:1,2017-03-02T16:00:00Z,28.8667,-90.4833,10.0,14.81,39.0,,'11111222,11111222,99999999' 
WAVCIS,ioos:station:WAVCIS:CSI06:1,2017-03-02T17:00:00Z,28.8667,-90.4833,10.0,14.22,47.0,,'11111222,11111222,99999999' 
WAVCIS,ioos:station:WAVCIS:CSI06:1,2017-03-02T18:00:00Z,28.8667,-90.4833,10.0,12.36,49.0,,'11111222,11111222,99999999' 
WAVCIS,ioos:station:WAVCIS:CSI06:1,2017-03-02T19:00:00Z,28.8667,-90.4833,10.0,12.34,39.0,,'11111222,11111222,99999999' 
WAVCIS,ioos:station:WAVCIS:CSI06:1,2017-03-02T20:00:00Z,28.8667,-90.4833,10.0,11.43,37.0,,'11111222,11111222,99999999' 
WAVCIS,ioos:station:WAVCIS:CSI06:1,2017-03-02T21:00:00Z,28.8667,-90.4833,10.0,10.25,44.0,,'11111222,11111222,99999999' 
WAVCIS,ioos:station:WAVCIS:CSI06:1,2017-03-02T22:00:00Z,28.8667,-90.4833,10.0,9.77,46.0,,'11111222,11111222,99999999' 
WAVCIS,ioos:station:WAVCIS:CSI06:1,2017-03-02T23:00:00Z,28.8667,-90.4833,10.0,9.29,44.0,,'11111222,11111222,99999999' 
WAVCIS,ioos:station:WAVCIS:CSI06:1,2017-03-03T00:00:00Z,28.8667,-90.4833,10.0,10.55,45.0,,'11111222,11111222,99999999' 
WAVCIS,ioos:station:WAVCIS:CSI06:1,2017-03-03T01:00:00Z,28.8667,-90.4833,10.0,11.13,41.0,,'11111222,11111222,99999999' 
WAVCIS,ioos:station:WAVCIS:CSI06:1,2017-03-03T02:00:00Z,28.8667,-90.4833,10.0,11.21,39.0,,'11111222,11111222,99999999' 
WAVCIS,ioos:station:WAVCIS:CSI06:1,2017-03-03T03:00:00Z,28.8667,-90.4833,10.0,11.69,44.0,,'11111222,11111222,99999999' 
WAVCIS,ioos:station:WAVCIS:CSI06:1,2017-03-03T04:00:00Z,28.8667,-90.4833,10.0,12.86,38.0,,'11111222,11111222,99999999' 
WAVCIS,ioos:station:WAVCIS:CSI06:1,2017-03-03T05:00:00Z,28.8667,-90.4833,10.0,10.62,41.0,,'11111222,11111222,99999999' 
WAVCIS,ioos:station:WAVCIS:CSI06:1,2017-03-03T06:00:00Z,28.8667,-90.4833,10.0,11.96,36.0,,'11111222,11111222,99999999' 
WAVCIS,ioos:station:WAVCIS:CSI06:1,2017-03-03T07:00:00Z,28.8667,-90.4833,10.0,11.77,41.0,,'11111222,11111222,99999999' 
WAVCIS,ioos:station:WAVCIS:CSI06:1,2017-03-03T08:00:00Z,28.8667,-90.4833,10.0,13.39,40.0,,'11111222,11111222,99999999' 
WAVCIS,ioos:station:WAVCIS:CSI06:1,2017-03-03T09:00:00Z,28.8667,-90.4833,10.0,14.22,47.0,,'11111222,11111222,99999999' 
WAVCIS,ioos:station:WAVCIS:CSI06:1,2017-03-03T10:00:00Z,28.8667,-90.4833,10.0,14.09,46.0,,'11111222,11111222,99999999' 
WAVCIS,ioos:station:WAVCIS:CSI06:1,2017-03-03T11:00:00Z,28.8667,-90.4833,10.0,15.07,49.0,,'11111222,11111222,99999999' 
WAVCIS,ioos:station:WAVCIS:CSI06:1,2017-03-03T12:00:00Z,28.8667,-90.4833,10.0,13.87,53.0,,'11111222,11111222,99999999' 
WAVCIS,ioos:station:WAVCIS:CSI06:1,2017-03-03T13:00:00Z,28.8667,-90.4833,10.0,13.47,50.0,,'11111222,11111222,99999999' 
WAVCIS,ioos:station:WAVCIS:CSI06:1,2017-03-03T14:00:00Z,28.8667,-90.4833,10.0,13.71,50.0,,'11111222,11111222,99999999' 
WAVCIS,ioos:station:WAVCIS:CSI06:1,2017-03-03T15:00:00Z,28.8667,-90.4833,10.0,14.92,58.0,,'11111222,11111222,99999999' 
WAVCIS,ioos:station:WAVCIS:CSI06:1,2017-03-03T16:00:00Z,28.8667,-90.4833,10.0,14.55,61.0,,'11111222,11111222,99999999' 
WAVCIS,ioos:station:WAVCIS:CSI06:1,2017-03-03T17:00:00Z,28.8667,-90.4833,10.0,14.48,61.0,,'11111222,11111222,99999999' 
WAVCIS,ioos:station:WAVCIS:CSI06:1,2017-03-03T18:00:00Z,28.8667,-90.4833,10.0,13.91,64.0,,'11111222,11111222,99999999' 
WAVCIS,ioos:station:WAVCIS:CSI06:1,2017-03-03T19:00:00Z,28.8667,-90.4833,10.0,14.08,65.0,,'11111222,11111222,99999999' 
WAVCIS,ioos:station:WAVCIS:CSI06:1,2017-03-03T20:00:00Z,28.8667,-90.4833,10.0,13.48,65.0,,'11111222,11111222,99999999' 
WAVCIS,ioos:station:WAVCIS:CSI06:1,2017-03-03T21:00:00Z,28.8667,-90.4833,10.0,13.96,65.0,,'11111222,11111222,99999999' 
WAVCIS,ioos:station:WAVCIS:CSI06:1,2017-03-03T22:00:00Z,28.8667,-90.4833,10.0,13.95,64.0,,'11111222,11111222,99999999' 
WAVCIS,ioos:station:WAVCIS:CSI06:1,2017-03-03T23:00:00Z,28.8667,-90.4833,10.0,13.67,67.0,,'11111222,11111222,99999999' 
WAVCIS,ioos:station:WAVCIS:CSI06:1,2017-03-04T00:00:00Z,28.8667,-90.4833,10.0,11.69,78.0,,'11111222,11111222,99999999' 
WAVCIS,ioos:station:WAVCIS:CSI06:1,2017-03-04T01:00:00Z,28.8667,-90.4833,10.0,11.07,76.0,,'11111222,11111222,99999999' 
WAVCIS,ioos:station:WAVCIS:CSI06:1,2017-03-04T02:00:00Z,28.8667,-90.4833,10.0,10.67,80.0,,'11111222,11111222,99999999' 
WAVCIS,ioos:station:WAVCIS:CSI06:1,2017-03-04T03:00:00Z,28.8667,-90.4833,10.0,11.23,81.0,,'11111222,11111222,99999999' 
WAVCIS,ioos:station:WAVCIS:CSI06:1,2017-03-04T04:00:00Z,28.8667,-90.4833,10.0,10.39,83.0,,'11111222,11111222,99999999' 
WAVCIS,ioos:station:WAVCIS:CSI06:1,2017-03-04T05:00:00Z,28.8667,-90.4833,10.0,9.34,85.0,,'11111222,11111222,99999999' 
WAVCIS,ioos:station:WAVCIS:CSI06:1,2017-03-04T06:00:00Z,28.8667,-90.4833,10.0,11.8,78.0,,'11111222,11111222,99999999' 
WAVCIS,ioos:station:WAVCIS:CSI06:1,2017-03-04T07:00:00Z,28.8667,-90.4833,10.0,12.06,65.0,,'11111222,11111222,99999999' 
WAVCIS,ioos:station:WAVCIS:CSI06:1,2017-03-04T08:00:00Z,28.8667,-90.4833,10.0,11.77,68.0,,'11111222,11111222,99999999' 
WAVCIS,ioos:station:WAVCIS:CSI06:1,2017-03-04T09:00:00Z,28.8667,-90.4833,10.0,12.75,73.0,,'11111222,11111222,99999999' 
WAVCIS,ioos:station:WAVCIS:CSI06:1,2017-03-04T10:00:00Z,28.8667,-90.4833,10.0,13.12,76.0,,'11111222,11111222,99999999' 
WAVCIS,ioos:station:WAVCIS:CSI06:1,2017-03-04T11:00:00Z,28.8667,-90.4833,10.0,13.6,76.0,,'11111222,11111222,99999999' 
WAVCIS,ioos:station:WAVCIS:CSI06:1,2017-03-04T12:00:00Z,28.8667,-90.4833,10.0,13.17,77.0,,'11111222,11111222,99999999' 
WAVCIS,ioos:station:WAVCIS:CSI06:1,2017-03-04T13:00:00Z,28.8667,-90.4833,10.0,12.57,79.0,,'11111222,11111222,99999999' 
WAVCIS,ioos:station:WAVCIS:CSI06:1,2017-03-04T14:00:00Z,28.8667,-90.4833,10.0,12.64,75.0,,'11111222,11111222,99999999' 
WAVCIS,ioos:station:WAVCIS:CSI06:1,2017-03-04T15:00:00Z,28.8667,-90.4833,10.0,12.06,81.0,,'11111222,11111222,99999999' 
WAVCIS,ioos:station:WAVCIS:CSI06:1,2017-03-04T16:00:00Z,28.8667,-90.4833,10.0,11.41,84.0,,'11111222,11111222,99999999' 
WAVCIS,ioos:station:WAVCIS:CSI06:1,2017-03-04T17:00:00Z,28.8667,-90.4833,10.0,11.52,93.0,,'11111222,11111222,99999999' 
WAVCIS,ioos:station:WAVCIS:CSI06:1,2017-03-04T18:00:00Z,28.8667,-90.4833,10.0,11.15,98.0,,'11111222,11111222,99999999' 
WAVCIS,ioos:station:WAVCIS:CSI06:1,2017-03-04T19:00:00Z,28.8667,-90.4833,10.0,10.92,97.0,,'11111222,11111222,99999999' 
WAVCIS,ioos:station:WAVCIS:CSI06:1,2017-03-04T20:00:00Z,28.8667,-90.4833,10.0,11.48,92.0,,'11111222,11111222,99999999' 
WAVCIS,ioos:station:WAVCIS:CSI06:1,2017-03-04T21:00:00Z,28.8667,-90.4833,10.0,11.25,92.0,,'11111222,11111222,99999999' 
WAVCIS,ioos:station:WAVCIS:CSI06:1,2017-03-04T22:00:00Z,28.8667,-90.4833,10.0,11.37,86.0,,'11111222,11111222,99999999' 
WAVCIS,ioos:station:WAVCIS:CSI06:1,2017-03-04T23:00:00Z,28.8667,-90.4833,10.0,11.44,78.0,,'11111222,11111222,99999999' 
WAVCIS,ioos:station:WAVCIS:CSI06:1,2017-03-05T00:00:00Z,28.8667,-90.4833,10.0,11.43,88.0,,'11111222,11111222,99999999' 
WAVCIS,ioos:station:WAVCIS:CSI06:1,2017-03-05T01:00:00Z,28.8667,-90.4833,10.0,11.62,88.0,,'11111222,11111222,99999999' 
WAVCIS,ioos:station:WAVCIS:CSI06:1,2017-03-05T02:00:00Z,28.8667,-90.4833,10.0,11.02,89.0,,'11111222,11111222,99999999' 
WAVCIS,ioos:station:WAVCIS:CSI06:1,2017-03-05T03:00:00Z,28.8667,-90.4833,10.0,10.79,93.0,,'11111222,11111222,99999999' 
WAVCIS,ioos:station:WAVCIS:CSI06:1,2017-03-05T04:00:00Z,28.8667,-90.4833,10.0,10.49,98.0,,'11111222,11111222,99999999' 
WAVCIS,ioos:station:WAVCIS:CSI06:1,2017-03-05T05:00:00Z,28.8667,-90.4833,10.0,11.35,98.0,,'11111222,11111222,99999999' 
WAVCIS,ioos:station:WAVCIS:CSI06:1,2017-03-05T06:00:00Z,28.8667,-90.4833,10.0,10.63,103.0,,'11111222,11111222,99999999' 
WAVCIS,ioos:station:WAVCIS:CSI06:1,2017-03-05T07:00:00Z,28.8667,-90.4833,10.0,10.05,111.0,,'11111222,11111222,99999999' 
WAVCIS,ioos:station:WAVCIS:CSI06:1,2017-03-05T08:00:00Z,28.8667,-90.4833,10.0,10.52,108.0,,'11111222,11111222,99999999' 
WAVCIS,ioos:station:WAVCIS:CSI06:1,2017-03-05T09:00:00Z,28.8667,-90.4833,10.0,11.31,113.0,,'11111222,11111222,99999999' 
WAVCIS,ioos:station:WAVCIS:CSI06:1,2017-03-05T10:00:00Z,28.8667,-90.4833,10.0,11.23,118.0,,'11111222,11111222,99999999' 
WAVCIS,ioos:station:WAVCIS:CSI06:1,2017-03-05T11:00:00Z,28.8667,-90.4833,10.0,10.6,119.0,,'11111222,11111222,99999999' 
WAVCIS,ioos:station:WAVCIS:CSI06:1,2017-03-05T12:00:00Z,28.8667,-90.4833,10.0,9.86,127.0,,'11111222,11111222,99999999' 
WAVCIS,ioos:station:WAVCIS:CSI06:1,2017-03-05T13:00:00Z,28.8667,-90.4833,10.0,9.27,126.0,,'11111222,11111222,99999999' 
WAVCIS,ioos:station:WAVCIS:CSI06:1,2017-03-05T14:00:00Z,28.8667,-90.4833,10.0,7.92,138.0,,'11111222,11111222,99999999' 
WAVCIS,ioos:station:WAVCIS:CSI06:1,2017-03-05T15:00:00Z,28.8667,-90.4833,10.0,7.37,139.0,,'11111222,11111222,99999999' 
WAVCIS,ioos:station:WAVCIS:CSI06:1,2017-03-05T16:00:00Z,28.8667,-90.4833,10.0,9.06,124.0,,'11111222,11111222,99999999' 
WAVCIS,ioos:station:WAVCIS:CSI06:1,2017-03-05T17:00:00Z,28.8667,-90.4833,10.0,8.83,120.0,,'11111222,11111222,99999999' 
WAVCIS,ioos:station:WAVCIS:CSI06:1,2017-03-05T18:00:00Z,28.8667,-90.4833,10.0,8.95,118.0,,'11111222,11111222,99999999' 
WAVCIS,ioos:station:WAVCIS:CSI06:1,2017-03-05T19:00:00Z,28.8667,-90.4833,10.0,8.79,114.0,,'11111222,11111222,99999999' 
WAVCIS,ioos:station:WAVCIS:CSI06:1,2017-03-05T20:00:00Z,28.8667,-90.4833,10.0,10.12,111.0,,'11111222,11111222,99999999' 
WAVCIS,ioos:station:WAVCIS:CSI06:1,2017-03-05T21:00:00Z,28.8667,-90.4833,10.0,11.67,123.0,,'11111222,11111222,99999999' 
WAVCIS,ioos:station:WAVCIS:CSI06:1,2017-03-05T22:00:00Z,28.8667,-90.4833,10.0,11.41,123.0,,'11111222,11111222,99999999' 
WAVCIS,ioos:station:WAVCIS:CSI06:1,2017-03-05T23:00:00Z,28.8667,-90.4833,10.0,11.58,123.0,,'11111222,11111222,99999999' 
WAVCIS,ioos:station:WAVCIS:CSI06:1,2017-03-06T00:00:00Z,28.8667,-90.4833,10.0,12.32,123.0,,'11111222,11111222,99999999' 
WAVCIS,ioos:station:WAVCIS:CSI06:1,2017-03-06T01:00:00Z,28.8667,-90.4833,10.0,12.29,124.0,,'11111222,11111222,99999999' 
WAVCIS,ioos:station:WAVCIS:CSI06:1,2017-03-06T02:00:00Z,28.8667,-90.4833,10.0,10.94,126.0,,'11111222,11111222,99999999' 
WAVCIS,ioos:station:WAVCIS:CSI06:1,2017-03-06T03:00:00Z,28.8667,-90.4833,10.0,11.26,131.0,,'11111222,11111222,99999999' 
WAVCIS,ioos:station:WAVCIS:CSI06:1,2017-03-06T04:00:00Z,28.8667,-90.4833,10.0,10.92,134.0,,'11111222,11111222,99999999' 
WAVCIS,ioos:station:WAVCIS:CSI06:1,2017-03-06T05:00:00Z,28.8667,-90.4833,10.0,10.76,136.0,,'11111222,11111222,99999999' 
WAVCIS,ioos:station:WAVCIS:CSI06:1,2017-03-06T06:00:00Z,28.8667,-90.4833,10.0,10.84,136.0,,'11111222,11111222,99999999' 
WAVCIS,ioos:station:WAVCIS:CSI06:1,2017-03-06T07:00:00Z,28.8667,-90.4833,10.0,11.28,134.0,,'11111222,11111222,99999999' 
WAVCIS,ioos:station:WAVCIS:CSI06:1,2017-03-06T08:00:00Z,28.8667,-90.4833,10.0,11.08,132.0,,'11111222,11111222,99999999' 
WAVCIS,ioos:station:WAVCIS:CSI06:1,2017-03-06T09:00:00Z,28.8667,-90.4833,10.0,11.57,133.0,,'11111222,11111222,99999999' 
WAVCIS,ioos:station:WAVCIS:CSI06:1,2017-03-06T10:00:00Z,28.8667,-90.4833,10.0,11.35,133.0,,'11111222,11111222,99999999' 
WAVCIS,ioos:station:WAVCIS:CSI06:1,2017-03-06T11:00:00Z,28.8667,-90.4833,10.0,10.07,136.0,,'11111222,11111222,99999999' 
WAVCIS,ioos:station:WAVCIS:CSI06:1,2017-03-06T12:00:00Z,28.8667,-90.4833,10.0,9.87,131.0,,'11111222,11111222,99999999' 
WAVCIS,ioos:station:WAVCIS:CSI06:1,2017-03-06T13:00:00Z,28.8667,-90.4833,10.0,10.01,129.0,,'11111222,11111222,99999999' 
WAVCIS,ioos:station:WAVCIS:CSI06:1,2017-03-06T14:00:00Z,28.8667,-90.4833,10.0,10.47,130.0,,'11111222,11111222,99999999' 
WAVCIS,ioos:station:WAVCIS:CSI06:1,2017-03-06T15:00:00Z,28.8667,-90.4833,10.0,9.53,135.0,,'11111222,11111222,99999999' 
WAVCIS,ioos:station:WAVCIS:CSI06:1,2017-03-06T16:00:00Z,28.8667,-90.4833,10.0,9.88,132.0,,'11111222,11111222,99999999' 
WAVCIS,ioos:station:WAVCIS:CSI06:1,2017-03-06T17:00:00Z,28.8667,-90.4833,10.0,10.03,132.0,,'11111222,11111222,99999999' 
WAVCIS,ioos:station:WAVCIS:CSI06:1,2017-03-06T18:00:00Z,28.8667,-90.4833,10.0,10.93,132.0,,'11111222,11111222,99999999' 
WAVCIS,ioos:station:WAVCIS:CSI06:1,2017-03-06T19:00:00Z,28.8667,-90.4833,10.0,11.55,130.0,,'11111222,11111222,99999999' 
WAVCIS,ioos:station:WAVCIS:CSI06:1,2017-03-06T20:00:00Z,28.8667,-90.4833,10.0,10.69,128.0,,'11111222,11111222,99999999' 
WAVCIS,ioos:station:WAVCIS:CSI06:1,2017-03-06T21:00:00Z,28.8667,-90.4833,10.0,10.69,125.0,,'11111222,11111222,99999999' 
WAVCIS,ioos:station:WAVCIS:CSI06:1,2017-03-06T22:00:00Z,28.8667,-90.4833,10.0,10.66,123.0,,'11111222,11111222,99999999' 
WAVCIS,ioos:station:WAVCIS:CSI06:1,2017-03-06T23:00:00Z,28.8667,-90.4833,10.0,11.43,121.0,,'11111222,11111222,99999999' 
WAVCIS,ioos:station:WAVCIS:CSI06:1,2017-03-07T00:00:00Z,28.8667,-90.4833,10.0,11.75,125.0,,'11111222,11111222,99999999' 
WAVCIS,ioos:station:WAVCIS:CSI06:1,2017-03-07T01:00:00Z,28.8667,-90.4833,10.0,11.74,126.0,,'11111222,11111222,99999999' 
WAVCIS,ioos:station:WAVCIS:CSI06:1,2017-03-07T02:00:00Z,28.8667,-90.4833,10.0,12.91,127.0,,'11111222,11111222,99999999' 
WAVCIS,ioos:station:WAVCIS:CSI06:1,2017-03-07T03:00:00Z,28.8667,-90.4833,10.0,11.94,131.0,,'11111222,11111222,99999999' 
WAVCIS,ioos:station:WAVCIS:CSI06:1,2017-03-07T04:00:00Z,28.8667,-90.4833,10.0,12.16,132.0,,'11111222,11111222,99999999' 
WAVCIS,ioos:station:WAVCIS:CSI06:1,2017-03-07T05:00:00Z,28.8667,-90.4833,10.0,11.78,137.0,,'11111222,11111222,99999999' 
WAVCIS,ioos:station:WAVCIS:CSI06:1,2017-03-07T06:00:00Z,28.8667,-90.4833,10.0,11.36,138.0,,'11111222,11111222,99999999' 
WAVCIS,ioos:station:WAVCIS:CSI06:1,2017-03-07T07:00:00Z,28.8667,-90.4833,10.0,10.76,140.0,,'11111222,11111222,99999999' 
WAVCIS,ioos:station:WAVCIS:CSI06:1,2017-03-07T08:00:00Z,28.8667,-90.4833,10.0,9.85,141.0,,'11111222,11111222,99999999' 
WAVCIS,ioos:station:WAVCIS:CSI06:1,2017-03-07T09:00:00Z,28.8667,-90.4833,10.0,7.37,141.0,,'11111222,11111222,99999999' 
WAVCIS,ioos:station:WAVCIS:CSI06:1,2017-03-07T10:00:00Z,28.8667,-90.4833,10.0,7.59,150.0,,'11111222,11111222,99999999' 
WAVCIS,ioos:station:WAVCIS:CSI06:1,2017-03-07T11:00:00Z,28.8667,-90.4833,10.0,9.02,153.0,,'11111222,11111222,99999999' 
WAVCIS,ioos:station:WAVCIS:CSI06:1,2017-03-07T12:00:00Z,28.8667,-90.4833,10.0,10.53,146.0,,'11111222,11111222,99999999' 
WAVCIS,ioos:station:WAVCIS:CSI06:1,2017-03-07T13:00:00Z,28.8667,-90.4833,10.0,10.69,152.0,,'11111222,11111222,99999999' 
WAVCIS,ioos:station:WAVCIS:CSI06:1,2017-03-07T14:00:00Z,28.8667,-90.4833,10.0,9.67,154.0,,'11111222,11111222,99999999' 
WAVCIS,ioos:station:WAVCIS:CSI06:1,2017-03-07T15:00:00Z,28.8667,-90.4833,10.0,7.1,155.0,,'11111222,11111222,99999999' 
WAVCIS,ioos:station:WAVCIS:CSI06:1,2017-03-07T16:00:00Z,28.8667,-90.4833,10.0,7.72,155.0,,'11111222,11111222,99999999' 
WAVCIS,ioos:station:WAVCIS:CSI06:1,2017-03-07T17:00:00Z,28.8667,-90.4833,10.0,7.34,158.0,,'11111222,11111222,99999999' 
WAVCIS,ioos:station:WAVCIS:CSI06:1,2017-03-07T18:00:00Z,28.8667,-90.4833,10.0,6.347,157.0,,'11111222,11111222,99999999' 
WAVCIS,ioos:station:WAVCIS:CSI06:1,2017-03-07T19:00:00Z,28.8667,-90.4833,10.0,5.093,163.0,,'11111222,11111222,99999999' 
WAVCIS,ioos:station:WAVCIS:CSI06:1,2017-03-07T20:00:00Z,28.8667,-90.4833,10.0,6.884,161.0,,'11111222,11111222,99999999' 
WAVCIS,ioos:station:WAVCIS:CSI06:1,2017-03-07T21:00:00Z,28.8667,-90.4833,10.0,7.24,167.0,,'11111222,11111222,99999999' 
WAVCIS,ioos:station:WAVCIS:CSI06:1,2017-03-07T22:00:00Z,28.8667,-90.4833,10.0,5.626,179.0,,'11111222,11111222,99999999' 
WAVCIS,ioos:station:WAVCIS:CSI06:1,2017-03-07T23:00:00Z,28.8667,-90.4833,10.0,4.473,181.0,,'11111222,11111222,99999999' 
WAVCIS,ioos:station:WAVCIS:CSI06:1,2017-03-08T00:00:00Z,28.8667,-90.4833,10.0,5.097,176.0,,'11111222,11111222,99999999' 
WAVCIS,ioos:station:WAVCIS:CSI06:1,2017-03-08T01:00:00Z,28.8667,-90.4833,10.0,2.647,193.0,,'11111222,11111222,99999999' 
WAVCIS,ioos:station:WAVCIS:CSI06:1,2017-03-08T02:00:00Z,28.8667,-90.4833,10.0,3.814,233.0,,'11111222,11111222,99999999' 
WAVCIS,ioos:station:WAVCIS:CSI06:1,2017-03-08T03:00:00Z,28.8667,-90.4833,10.0,5.124,178.0,,'11111222,11111222,99999999' 
WAVCIS,ioos:station:WAVCIS:CSI06:1,2017-03-08T04:00:00Z,28.8667,-90.4833,10.0,6.565,156.0,,'11111222,11111222,99999999' 
WAVCIS,ioos:station:WAVCIS:CSI06:1,2017-03-08T05:00:00Z,28.8667,-90.4833,10.0,6.7,158.0,,'11111222,11111222,99999999' 
WAVCIS,ioos:station:WAVCIS:CSI06:1,2017-03-08T06:00:00Z,28.8667,-90.4833,10.0,5.751,155.0,,'11111222,11111222,99999999' 
WAVCIS,ioos:station:WAVCIS:CSI06:1,2017-03-08T07:00:00Z,28.8667,-90.4833,10.0,6.992,173.0,,'11111222,11111222,99999999' 
WAVCIS,ioos:station:WAVCIS:CSI06:1,2017-03-08T08:00:00Z,28.8667,-90.4833,10.0,7.88,57.0,,'11111222,11111222,99999999' 
WAVCIS,ioos:station:WAVCIS:CSI06:1,2017-03-08T09:00:00Z,28.8667,-90.4833,10.0,5.366,51.0,,'11111222,11111222,99999999' 
WAVCIS,ioos:station:WAVCIS:CSI06:1,2017-03-08T10:00:00Z,28.8667,-90.4833,10.0,7.2,58.0,,'11111222,11111222,99999999' 
WAVCIS,ioos:station:WAVCIS:CSI06:1,2017-03-08T11:00:00Z,28.8667,-90.4833,10.0,5.487,82.0,,'11111222,11111222,99999999' 
WAVCIS,ioos:station:WAVCIS:CSI06:1,2017-03-08T12:00:00Z,28.8667,-90.4833,10.0,7.02,69.0,,'11111222,11111222,99999999' 
WAVCIS,ioos:station:WAVCIS:CSI06:1,2017-03-08T13:00:00Z,28.8667,-90.4833,10.0,7.36,62.0,,'11111222,11111222,99999999' 
WAVCIS,ioos:station:WAVCIS:CSI06:1,2017-03-08T14:00:00Z,28.8667,-90.4833,10.0,7.39,54.0,,'11111222,11111222,99999999' 
WAVCIS,ioos:station:WAVCIS:CSI06:1,2017-03-08T15:00:00Z,28.8667,-90.4833,10.0,9.88,68.0,,'11111222,11111222,99999999' 
WAVCIS,ioos:station:WAVCIS:CSI06:1,2017-03-08T16:00:00Z,28.8667,-90.4833,10.0,8.51,79.0,,'11111222,11111222,99999999' 
WAVCIS,ioos:station:WAVCIS:CSI06:1,2017-03-08T17:00:00Z,28.8667,-90.4833,10.0,10.06,56.0,,'11111222,11111222,99999999' 
WAVCIS,ioos:station:WAVCIS:CSI06:1,2017-03-08T18:00:00Z,28.8667,-90.4833,10.0,10.16,58.0,,'11111222,11111222,99999999' 
WAVCIS,ioos:station:WAVCIS:CSI06:1,2017-03-08T19:00:00Z,28.8667,-90.4833,10.0,10.22,59.0,,'11111222,11111222,99999999' 
WAVCIS,ioos:station:WAVCIS:CSI06:1,2017-03-08T20:00:00Z,28.8667,-90.4833,10.0,10.03,65.0,,'11111222,11111222,99999999' 
WAVCIS,ioos:station:WAVCIS:CSI06:1,2017-03-08T21:00:00Z,28.8667,-90.4833,10.0,9.57,72.0,,'11111222,11111222,99999999' 
WAVCIS,ioos:station:WAVCIS:CSI06:1,2017-03-08T22:00:00Z,28.8667,-90.4833,10.0,8.7,76.0,,'11111222,11111222,99999999' 
WAVCIS,ioos:station:WAVCIS:CSI06:1,2017-03-08T23:00:00Z,28.8667,-90.4833,10.0,8.02,77.0,,'11111222,11111222,99999999' 
WAVCIS,ioos:station:WAVCIS:CSI06:1,2017-03-09T00:00:00Z,28.8667,-90.4833,10.0,7.49,82.0,,'11111222,11111222,99999999' 
WAVCIS,ioos:station:WAVCIS:CSI06:1,2017-03-09T01:00:00Z,28.8667,-90.4833,10.0,7.3,81.0,,'11111222,11111222,99999999' 
WAVCIS,ioos:station:WAVCIS:CSI06:1,2017-03-09T02:00:00Z,28.8667,-90.4833,10.0,7.21,77.0,,'11111222,11111222,99999999' 
WAVCIS,ioos:station:WAVCIS:CSI06:1,2017-03-09T03:00:00Z,28.8667,-90.4833,10.0,6.367,81.0,,'11111222,11111222,99999999' 
WAVCIS,ioos:station:WAVCIS:CSI06:1,2017-03-09T04:00:00Z,28.8667,-90.4833,10.0,6.756,77.0,,'11111222,11111222,99999999' 
WAVCIS,ioos:station:WAVCIS:CSI06:1,2017-03-09T05:00:00Z,28.8667,-90.4833,10.0,7.49,79.0,,'11111222,11111222,99999999' 